When you browse on this site, cookies collect data to enhance your experience and personalize the content and advertising you see.
Visit our Privacy Policy to learn more. By continuing to use the site, you agree to this use of cookies and data.
  • In Österreich
  • Länderverzeichnis
  • Für 7 Tage
  • Wassertemperatur
  • Satellitenkarten
  • Wetterkarte
  • News
  • Widgets
  • user-avatar
    Anmelden

    Stündliche Wetter Elzbiecin

    Heute, 20 Februar, Mittwoch

    Zeit Temperatur Niederschläge Wind Luftdruck Luftfeuchtigkeit
    00:00 +2°C° 0 mm 5 m/S 748 mmHg 90%
    01:00 +1°C° 0 mm 4 m/S 748 mmHg 92%
    02:00 +1°C° 0 mm 4 m/S 748 mmHg 92%
    03:00 +1°C° 0 mm 5 m/S 748 mmHg 91%
    04:00 +1°C° 0 mm 6 m/S 748 mmHg 91%
    05:00 +1°C° 0 mm 6 m/S 748 mmHg 91%
    06:00 +1°C° 0 mm 6 m/S 748 mmHg 90%
    07:00 -1°C° 0 mm 6 m/S 749 mmHg 89%
    08:00 +1°C° 0.1 mm 6 m/S 749 mmHg 84%
    09:00 +2°C° 0.1 mm 7 m/S 749 mmHg 79%
    10:00 +2°C° 0.1 mm 8 m/S 750 mmHg 74%
    11:00 +2°C° 0.1 mm 8 m/S 750 mmHg 72%
    12:00 +2°C° 0.1 mm 8 m/S 750 mmHg 70%
    13:00 +2°C° 0.1 mm 8 m/S 750 mmHg 68%
    14:00 +3°C° 0 mm 7 m/S 751 mmHg 68%
    15:00 +3°C° 0 mm 7 m/S 751 mmHg 68%
    16:00 +3°C° 0 mm 6 m/S 751 mmHg 69%
    17:00 +3°C° 0 mm 6 m/S 752 mmHg 72%
    18:00 +2°C° 0 mm 5 m/S 752 mmHg 76%
    19:00 +2°C° 0 mm 5 m/S 753 mmHg 80%
    20:00 +1°C° 0 mm 4 m/S 753 mmHg 82%
    21:00 0°C° 0 mm 4 m/S 754 mmHg 85%
    22:00 0°C° 0 mm 3 m/S 754 mmHg 87%
    23:00 0°C° 0 mm 3 m/S 755 mmHg 86%

    Morgen, 21 Februar, Donnerstag

    Zeit Temperatur Niederschläge Wind Luftdruck Luftfeuchtigkeit
    00:00 -1°C° 0 mm 3 m/S 755 mmHg 85%
    01:00 -1°C° 0 mm 2 m/S 755 mmHg 84%
    02:00 -1°C° 0 mm 2 m/S 755 mmHg 82%
    03:00 -1°C° 0 mm 2 m/S 755 mmHg 81%
    04:00 +1°C° 0 mm 1 m/S 755 mmHg 79%
    05:00 +2°C° 0 mm 1 m/S 755 mmHg 81%
    06:00 +2°C° 0 mm 1 m/S 755 mmHg 82%
    07:00 +2°C° 0 mm 1 m/S 755 mmHg 84%
    08:00 +2°C° 0.3 mm 1 m/S 755 mmHg 85%
    09:00 +3°C° 0.3 mm 1 m/S 755 mmHg 86%
    10:00 +2°C° 0.3 mm 2 m/S 755 mmHg 87%
    11:00 +2°C° 0.7 mm 2 m/S 755 mmHg 89%
    12:00 +2°C° 0.7 mm 2 m/S 754 mmHg 91%
    13:00 +2°C° 0.7 mm 2 m/S 754 mmHg 93%
    14:00 +2°C° 0.8 mm 2 m/S 754 mmHg 94%
    15:00 +2°C° 0.8 mm 2 m/S 753 mmHg 96%
    16:00 +3°C° 0.8 mm 2 m/S 752 mmHg 97%
    17:00 +3°C° 0.6 mm 2 m/S 752 mmHg 97%
    18:00 +3°C° 0.6 mm 2 m/S 752 mmHg 97%
    19:00 +4°C° 0.6 mm 1 m/S 752 mmHg 97%
    20:00 +2°C° 0.6 mm 2 m/S 752 mmHg 97%
    21:00 +1°C° 0.6 mm 3 m/S 752 mmHg 96%
    22:00 -1°C° 0.6 mm 4 m/S 752 mmHg 96%
    23:00 -1°C° 0.4 mm 5 m/S 753 mmHg 94%

    übermorgen, 22 Februar, Freitag

    Zeit Temperatur Niederschläge Wind Luftdruck Luftfeuchtigkeit
    00:00 -3°C° 0.4 mm 6 m/S 753 mmHg 91%
    01:00 -4°C° 0.4 mm 7 m/S 754 mmHg 89%
    02:00 -4°C° 0.1 mm 6 m/S 755 mmHg 85%
    03:00 -5°C° 0.1 mm 6 m/S 755 mmHg 81%
    04:00 -5°C° 0.1 mm 6 m/S 756 mmHg 77%
    05:00 -6°C° 0 mm 6 m/S 758 mmHg 77%
    06:00 -6°C° 0 mm 6 m/S 759 mmHg 77%
    07:00 -8°C° 0 mm 6 m/S 760 mmHg 77%
    08:00 -8°C° 0 mm 6 m/S 761 mmHg 73%
    09:00 -8°C° 0 mm 6 m/S 762 mmHg 69%
    10:00 -6°C° 0 mm 6 m/S 763 mmHg 65%
    11:00 -6°C° 0 mm 6 m/S 764 mmHg 63%
    12:00 -6°C° 0 mm 6 m/S 765 mmHg 62%
    13:00 -5°C° 0 mm 5 m/S 766 mmHg 60%
    14:00 -6°C° 0 mm 5 m/S 766 mmHg 60%
    15:00 -6°C° 0 mm 5 m/S 766 mmHg 59%
    16:00 -6°C° 0 mm 5 m/S 767 mmHg 58%
    17:00 -7°C° 0 mm 4 m/S 767 mmHg 60%
    18:00 -7°C° 0 mm 4 m/S 768 mmHg 61%
    19:00 -8°C° 0 mm 4 m/S 768 mmHg 63%
    20:00 -8°C° 0 mm 4 m/S 769 mmHg 61%
    21:00 -8°C° 0 mm 4 m/S 769 mmHg 59%
    22:00 -8°C° 0 mm 4 m/S 770 mmHg 57%
    23:00 -8°C° 0 mm 4 m/S 770 mmHg 58%

    23 Februar, Samstag

    Zeit Temperatur Niederschläge Wind Luftdruck Luftfeuchtigkeit
    00:00 -8°C° 0 mm 4 m/S 770 mmHg 60%
    01:00 -9°C° 0 mm 4 m/S 770 mmHg 61%
    02:00 -8°C° 0 mm 3 m/S 770 mmHg 63%
    03:00 -8°C° 0 mm 3 m/S 770 mmHg 65%
    04:00 -7°C° 0 mm 2 m/S 770 mmHg 67%
    05:00 -7°C° 0 mm 2 m/S 770 mmHg 69%
    06:00 -8°C° 0 mm 2 m/S 771 mmHg 70%
    07:00 -8°C° 0 mm 2 m/S 771 mmHg 72%
    08:00 -7°C° 0 mm 2 m/S 771 mmHg 66%
    09:00 -6°C° 0 mm 2 m/S 771 mmHg 61%
    10:00 -5°C° 0 mm 2 m/S 771 mmHg 55%
    11:00 -4°C° 0 mm 2 m/S 771 mmHg 52%
    12:00 -3°C° 0 mm 2 m/S 771 mmHg 48%
    13:00 -3°C° 0 mm 2 m/S 771 mmHg 44%
    14:00 -3°C° 0 mm 2 m/S 771 mmHg 47%
    15:00 -2°C° 0 mm 2 m/S 770 mmHg 50%
    16:00 -2°C° 0 mm 2 m/S 770 mmHg 53%
    17:00 -3°C° 0 mm 2 m/S 770 mmHg 56%
    18:00 -3°C° 0 mm 2 m/S 770 mmHg 59%
    19:00 -1°C° 0 mm 1 m/S 770 mmHg 62%
    20:00 -1°C° 0 mm 1 m/S 770 mmHg 61%
    21:00 -1°C° 0 mm 1 m/S 770 mmHg 60%
    22:00 -1°C° 0 mm 1 m/S 769 mmHg 59%
    23:00 -1°C° 0 mm 1 m/S 769 mmHg 57%

    24 Februar, Sonntag

    Zeit Temperatur Niederschläge Wind Luftdruck Luftfeuchtigkeit
    00:00 -2°C° 0 mm 2 m/S 769 mmHg 56%
    01:00 -2°C° 0 mm 2 m/S 769 mmHg 54%
    02:00 -2°C° 0 mm 2 m/S 768 mmHg 54%
    03:00 -2°C° 0 mm 3 m/S 768 mmHg 53%
    04:00 -2°C° 0 mm 3 m/S 768 mmHg 53%
    05:00 -2°C° 0 mm 3 m/S 767 mmHg 56%
    06:00 -2°C° 0 mm 3 m/S 767 mmHg 58%
    07:00 -3°C° 0 mm 2 m/S 767 mmHg 61%
    08:00 -2°C° 0 mm 3 m/S 767 mmHg 62%
    09:00 -1°C° 0 mm 3 m/S 767 mmHg 64%
    10:00 0°C° 0 mm 3 m/S 767 mmHg 65%
    11:00 0°C° 0 mm 3 m/S 767 mmHg 68%
    12:00 +1°C° 0 mm 3 m/S 767 mmHg 71%
    13:00 +1°C° 0 mm 3 m/S 766 mmHg 74%
    14:00 +1°C° 0 mm 3 m/S 766 mmHg 76%
    15:00 +2°C° 0 mm 2 m/S 766 mmHg 79%
    16:00 +3°C° 0 mm 1 m/S 766 mmHg 81%
    17:00 +3°C° 0 mm 1 m/S 766 mmHg 83%
    18:00 +2°C° 0 mm 1 m/S 766 mmHg 85%
    19:00 +2°C° 0 mm 1 m/S 766 mmHg 86%
    20:00 +2°C° 0 mm 1 m/S 766 mmHg 87%
    21:00 -1°C° 0 mm 2 m/S 766 mmHg 87%
    22:00 -1°C° 0 mm 2 m/S 766 mmHg 88%
    23:00 -1°C° 0 mm 2 m/S 766 mmHg 87%

    25 Februar, Montag

    Zeit Temperatur Niederschläge Wind Luftdruck Luftfeuchtigkeit
    00:00 -1°C° 0 mm 2 m/S 766 mmHg 86%
    01:00 -1°C° 0 mm 2 m/S 766 mmHg 85%
    02:00 -1°C° 0 mm 2 m/S 765 mmHg 85%
    03:00 -1°C° 0 mm 3 m/S 765 mmHg 85%
    04:00 -1°C° 0 mm 3 m/S 765 mmHg 85%
    05:00 -1°C° 0 mm 3 m/S 765 mmHg 86%
    06:00 -1°C° 0 mm 3 m/S 765 mmHg 86%
    07:00 -1°C° 0 mm 3 m/S 764 mmHg 87%
    08:00 0°C° 0 mm 3 m/S 764 mmHg 85%
    09:00 +1°C° 0 mm 4 m/S 765 mmHg 84%
    10:00 +3°C° 0 mm 4 m/S 765 mmHg 83%
    11:00 +3°C° 0 mm 5 m/S 765 mmHg 79%
    12:00 +3°C° 0 mm 5 m/S 765 mmHg 74%
    13:00 +4°C° 0 mm 6 m/S 765 mmHg 70%
    14:00 +3°C° 0 mm 5 m/S 764 mmHg 71%
    15:00 +3°C° 0 mm 5 m/S 764 mmHg 73%
    16:00 +3°C° 0 mm 4 m/S 764 mmHg 74%
    17:00 +1°C° 0 mm 4 m/S 764 mmHg 79%
    18:00 0°C° 0 mm 4 m/S 765 mmHg 83%
    19:00 -1°C° 0 mm 5 m/S 765 mmHg 88%
    20:00 -1°C° 0 mm 5 m/S 765 mmHg 88%
    21:00 -1°C° 0 mm 5 m/S 765 mmHg 88%
    22:00 -1°C° 0 mm 5 m/S 765 mmHg 88%
    23:00 -1°C° 0 mm 5 m/S 765 mmHg 89%
    Mehr zeigen